Regional Weather Roundup
Issued by NWS Bismarck, ND

Home | Current Version | Previous Version | Text Only | Print | Product List | Glossary On
Versions: 1 2 3 4 5 6 7 8 9 10 11 12 13 14 15 16 17 18 19 20 21 22 23 24 25 26 27 28 29 30 31 32 33 34 35 36 37 38 39 40 41 42 43 44 45 46 47 48 49 50
000
ASUS43 KBIS 260710
RWRBIS

NWR BROADCAST TEXT
NATIONAL WEATHER SERVICE BISMARCK ND
200 AM CDT SUN APR 26 2015

NOTE: "FAIR" INDICATES FEW OR NO CLOUDS BELOW 12,000 FEET WITH NO
SIGNIFICANT WEATHER AND/OR OBSTRUCTIONS TO VISIBILITY.


CITY           SKY/WX    TMP DP  RH WIND       PRES   REMARKS
WILLISTON      CLOUDY    43  39  86 W12       29.90R
MINOT          CLOUDY    47  41  80 SE10      29.91R
MINOT AFB      MOCLDY    47  47  99 S12       29.90R
BISMARCK       CLOUDY    48  43  82 E7        29.94R
DICKINSON      LGT RAIN  44  42  93 W6        29.90R
GARRISON         N/A     46  43  89 SE8       29.92R
HETTINGER ARPT CLOUDY    44  42  93 NW7       29.92R
JAMESTOWN      CLOUDY    47  40  76 CALM      29.97R
BEACH          PTSUNNY   37  37 100 W9        29.93R
CARRINGTON     CLOUDY    46  45  93 SE8       29.98R
CROSBY         CLOUDY    45  45 100 SW12      29.88R
HARVEY           N/A    N/A N/A N/A MISG        N/A
HAZEN          CLOUDY    46  43  87 S6        29.93R
LINTON         PTSUNNY   48  46  93 SE12      29.94R
MANDAN         CLOUDY    46  43  87 E3        29.95R
OAKES            N/A     48  45  87 SE9       29.98R
STANLEY        CLOUDY    46  46 100 S13       29.90R
WATFORD CITY   CLOUDY    43  43 100 SW7       29.89R
$$

CITY           SKY/WX    TMP DP  RH WIND       PRES   REMARKS
GRAND FORKS    CLEAR     37  29  72 SW7       30.01R
GRAND FORKS AF CLEAR     38  29  72 S7        30.01R
DEVILS LAKE    CLOUDY    45  39  81 SE5       29.98R
FARGO          CLEAR     46  29  51 SE7       30.01R
CANDO          CLOUDY    46  39  76 SE7       29.98R
CAVALIER       FAIR      41  32  70 SE8       30.01R
GRAFTON        FAIR      39  30  70 E10       30.02R
GWINNER        SUNNY     37  37 100 NE6       30.01R
LANGDON        FAIR      37  34  87 SE8       30.00R
ROLLA          CLOUDY    46  41  81 S6        29.97R
WALHALLA       FAIR      39  36  87 SE3       30.01R
$$

CITY           SKY/WX    TMP DP  RH WIND       PRES   REMARKS
ABERDEEN       CLOUDY    50  41  71 E6        29.97R
MOBRIDGE       CLOUDY    52  43  71 SE16      29.89S
BUFFALO          N/A     43  40  89 NW7       29.87R
RAPID CITY     CLOUDY    45  41  86 N21       29.87S
GLASGOW        MOCLDY    38  34  85 NW12      29.92R
SIDNEY         CLEAR     37  34  87 CALM      29.92R
WOLF POINT     CLOUDY    41  37  86 W8        29.93R
GLENDIVE       CLEAR     36  34  93 W10       29.93R
MILES CITY     PTCLDY    40  38  93 CALM      29.92R
BAKER          CLOUDY    39  37  92 NW3       29.92R
$$

CITY           SKY/WX    TMP DP  RH WIND       PRES   REMARKS
BILLINGS       MOCLDY    41  35  79 E3        29.90R
GREAT FALLS    CLOUDY    35  29  78 NE15      29.98R
REGINA         CLOUDY    37  37 100 SW14G21   29.80S
ESTEVAN        LGT RAIN  46  45  93 SE14      29.86R
$$




USA.gov is the U.S. government's official web portal to all federal, state and local government web resources and services.